Weather in Kashara

Russia / Kursk Oblast     51°50′24″N   35°05′08″E
temp.,
°C
wind,
m/s
gust,
m/s
humid.,
%
clouds,
%
prec.,
mm/h
press.,
hPa
HPBL,
m
16 june, wed
wed1600:00+17nnw33901 0.1 101131
03:00+15n22931 0.1 101124
06:00+16nne36950 0.0 1011144
09:00+21nne45815 0.1 1012500
12:00+23nne55734 0.9 1012950
15:00+23nne457212 2.8 10131191
18:00+22ne46806 1.4 1013722
21:00+18nne48900 1.6 1015138
17 june, thu
thu1700:00+16ne411930 0.0 1016228
03:00+15ne410950 0.0 1017200
06:00+15ne410934 0.0 1018269
09:00+19ne710780 0.0 1020622
12:00+21ene79670 0.0 1021918
15:00+22ne68670 0.0 10211149
18:00+21ene69750 0.0 1022958
21:00+16ne411870 0.0 1023245
18 june, fri
fri1800:00+14ne413920 0.0 1024272
03:00+13ene412930 0.0 1024247
06:00+13ene412880 0.0 1025287
09:00+18e610740 0.0 1025559
12:00+21e67640 0.0 10261081
15:00+22e67634 0.0 10251301
18:00+21ene57750 0.0 1025973
21:00+17ene49890 0.0 1026154
19 june, sat
sat1900:00+14e37925 0.0 1026108
03:00+13e379420 0.0 1026143
06:00+14ene38915 0.0 1027202
09:00+18e58744 0.0 1027596
12:00+21e67630 0.0 10261132
15:00+22ese67620 0.0 10251105
18:00+21ese47732 0.0 1024852
21:00+17e37870 0.0 1024110
20 june, sun
sun2000:00+15e35910 0.0 102479
03:00+14e36930 0.0 102596
06:00+15e38910 0.0 1024191
09:00+20e57770 0.0 1024463
12:00+23ese566611 0.0 1023982
15:00+24e566359 0.0 10221117
18:00+23ese47735 0.0 1021840
21:00+18e478810 0.0 1021115